Hourly Data Report for September 27, 2003

SHERBROOKE A
QUEBEC

45°26'00.000" N
71°41'00.000" W
241.40 m
7028124
71610
YSC

Download Data

Hourly Data (September 2003)
Hourly Data Report for September 27, 2003
TIME
LST
Temp Definition
°C
Dew Point Definition
°C
Rel Hum Definition
%
Precip. Amount Definition
mm

Wind Dir Definition
10's deg

Wind Spd Definition
km/h
Visibility Definition
km
Stn Press Definition
kPa
Hmdx Definition


Wind Chill Definition


Weather Definition


00:00 10.1 9.2 94   9 7 15.0 98.93      
01:00 9.7 8.8 94   12 6 15.0 98.94      
02:00 9.2 8.4 95   9 7 12.9 98.93      
03:00 10.5 9.4 93   9 9 15.0 98.92      
04:00 11.6 10.5 93   10 11 15.0 98.88      
05:00 11.3 10.2 93   9 7 12.9 98.84      
06:00 11.8 10.8 94   7 9 9.7 98.81      
07:00 14.4 12.6 89   7 6 19.3 98.82     Mainly Clear
08:00 18.4 14.7 79   12 9 19.3 98.84     Clear
09:00 20.5 14.0 66   14 17 19.3 98.87     Mainly Clear
10:00 22.1 13.5 58   14 22 24.1 98.82 25   Mainly Clear
11:00 24.1 14.6 55   16 22 24.1 98.77 28   Mainly Clear
12:00 25.4 14.8 52   17 26 24.1 98.72 29   Mainly Clear
13:00 26.1 15.2 51   18 28 24.1 98.65 30   Mainly Clear
14:00 26.3 16.0 53   16 26 24.1 98.63 31   Mainly Clear
15:00 24.3 16.0 60   16 24 24.1 98.60 29   Mostly Cloudy
16:00 22.6 16.0 66   14 20 24.1 98.60 27   Mainly Clear
17:00 20.6 15.2 71   12 17 15.0 98.64 25    
18:00 19.5 14.0 71   13 15 15.0 98.63      
19:00 18.4 14.2 77   13 9 15.0 98.67      
20:00 16.9 13.8 82   9 6 15.0 98.67      
21:00 16.9 13.4 80   9 6 15.0 98.64      
22:00 17.1 13.1 77   13 9 15.0 98.65      
23:00 16.9 12.8 77   11 9 15.0 98.54      

Notes on Data Quality.

Legend

  • E = Estimated
  • M = Missing
  • NA = Not Available*
  • [empty] = Indicates an unobserved value
Date modified: